Location: Earls Colne
(51.9333°N, 0.7000°E)
Time: 19:26:44
(UTC+00:00)

Daily predictions for brighter satellites

Satellite Brightness Start Highest point End
(mag) Time Altitude Azimuth Time Altitude Azimuth Time Altitude Azimuth
Meteor 1-5 Rocket 4.3 18:41:25 10° S 18:47:03 69° E 18:52:53 10° NNE
Cosmos 2369 Rocket 4.2 18:44:47 10° NNW 18:48:07 15° NNE 18:51:27 10° ENE
YAOGAN 1 3.3 18:45:28 10° S 18:49:43 59° W 18:53:58 10° NNW
SPOT 1/Viking Rocket 3.6 18:49:04 10° SSE 18:54:15 77° ENE 18:59:26 10° NNW
Terra 3.9 18:55:02 10° ENE 18:56:21 11° NE 18:57:40 10° NNE
Kosmos-1783 4.0 18:55:33 10° S 18:57:08 16° SE 18:58:25 10° E
TRACE 4.3 18:54:56 10° NNE 18:58:21 75° ESE 19:01:43 10° S
Cosmos 1400 Rocket 2.7 18:54:58 10° N 18:58:48 65° ENE 19:02:34 10° SSE
Cosmos 2322 4.0 18:54:12 10° S 18:59:33 46° ESE 19:04:55 10° NE
Cosmos 1066 Rocket 4.3 18:53:48 10° N 18:59:42 73° ENE 19:05:32 10° SSE
USA 59 Rocket -0.1 18:57:49 10° NW 19:01:27 86° NE 19:06:22 10° SE
Cosmos 1943 Rocket 2.7 18:59:26 10° NNW 19:04:39 41° NE 19:09:51 10° ESE
CZ-4B R/B 3.5 19:00:53 10° SSE 19:05:37 81° WSW 19:10:29 10° NNW
Cosmos 1725 Rocket 4.4 18:59:42 10° SSW 19:05:52 72° WNW 19:12:04 10° N
CSL-04 Debris 4.4 19:02:55 10° SE 19:08:12 52° ENE 19:13:31 10° N
ACS3 Solar Sail 2.5 19:03:30 10° SE 19:09:23 40° ENE 19:15:16 10° N
Cosmos 1315 Rocket 4.3 19:07:04 10° NNE 19:10:08 21° ENE 19:12:48 12° ESE
USA 267 3.7 19:04:09 10° ENE 19:10:31 58° N 19:16:55 10° WNW
Cosmos 1328 Rocket 3.5 19:07:13 10° N 19:11:31 70° ENE 19:15:48 10° SSE
Helios 1A 2.9 19:09:00 10° NNE 19:13:02 58° ESE 19:17:02 10° S
Meteor 1-4 Rocket 1.8 19:13:17 10° N 19:15:55 55° ENE 19:18:33 10° SSE
Cosmos 1536 3.6 19:16:46 10° SSE 19:20:02 27° E 19:23:20 10° NNE
NOSS 2-1 (C) 3.7 19:16:38 10° NW 19:20:15 68° SW 19:25:07 10° SE
COSMOS 2428 2.8 19:15:52 10° S 19:21:24 55° ESE 19:27:00 10° NE
USA 290 2.2 19:19:07 10° NNW 19:22:24 66° ENE 19:25:26 12° SE
SKYMED 3 4.4 19:18:58 10° NNE 19:23:08 86° ESE 19:27:15 10° SSW
Cosmos 1726 1.9 19:22:39 10° SSW 19:25:26 62° WNW 19:28:13 10° N
CARTOSAT-1 3.5 19:21:52 10° SSE 19:26:06 74° ENE 19:30:22 10° N
CZ-4 R/B 1.4 19:22:28 10° S 19:26:16 75° WSW 19:30:11 10° NNW
Nadezhda 4 Rocket 4.3 19:20:39 10° N 19:26:42 48° ENE 19:32:46 10° SSE
BlueWalker 3 3.0 19:24:00 10° W 19:27:29 37° SSW 19:30:35 12° SSE
ISS -1.7 19:26:24 10° SSE 19:27:44 13° SE 19:27:44 13° SE
SPOT 5 3.6 19:27:16 15° ESE 19:30:26 30° ENE 19:34:21 10° N
Cosmos 2233 Rocket 4.4 19:25:03 10° SSW 19:31:09 69° WNW 19:37:20 10° N
Cosmos 1674 2.8 19:27:59 10° NNW 19:31:19 61° W 19:34:35 10° S
USA 186 1.8 19:29:32 10° SSE 19:32:44 87° WSW 19:35:59 10° NNW
Cosmos 2278 Rocket 2.2 19:29:24 10° NNW 19:35:07 84° ENE 19:40:33 11° SSE
Cosmos 1733 3.6 19:34:16 12° SSE 19:37:06 32° E 19:40:12 10° NNE
Cosmos 1513 Rocket 4.4 19:32:03 10° S 19:38:00 64° E 19:44:03 10° NNE
USA 306 2.6 19:36:12 10° SW 19:39:15 44° SSE 19:41:34 18° E
SeaSat 1 4.4 19:36:13 10° NNE 19:40:33 32° NW 19:44:53 10° WSW
NOSS 0 Rocket 4.1 19:35:27 10° S 19:41:24 49° ESE 19:47:24 10° NE
CZ-4B R/B 3.2 19:36:17 10° SSE 19:41:46 87° WSW 19:47:11 10° NNW
Cosmos 1842 3.2 19:39:05 10° NNW 19:42:42 74° W 19:46:19 10° S
Iridium 4 Rocket 4.1 19:39:52 10° NNW 19:43:54 46° W 19:47:52 10° SSW
Cosmos 1464 Rocket 4.1 19:38:04 10° SSE 19:44:11 56° E 19:50:25 10° NNE
SL-08 R/B 4.0 19:40:35 10° N 19:45:27 60° WNW 19:50:17 10° SSW
Aureole 3 Rocket 4.4 19:41:16 10° SSE 19:47:25 36° E 19:52:03 10° NNE
Lacrosse 4 Rocket 3.5 19:45:24 10° WNW 19:48:59 25° WSW 19:52:33 10° SSW
CZ-4B R/B 4.0 19:45:40 10° S 19:49:20 44° W 19:53:13 10° NNW
Cosmos 1356 Rocket 3.5 19:45:23 10° NNW 19:49:35 82° W 19:53:46 10° S
Sich 1 3.9 19:49:03 23° ESE 19:50:31 28° E 19:54:12 10° NNE
USA 276 2.6 19:49:43 10° W 19:52:23 37° SSW 19:53:02 31° SSE
MOS 1 Rocket 4.1 19:49:57 21° ESE 19:52:51 40° ENE 19:57:45 10° N
Meteor 1-14 Rocket 4.1 19:47:48 10° S 19:53:20 87° ESE 19:58:55 10° NNE
Cosmos 1707 2.8 19:50:00 10° NNW 19:53:32 67° W 19:57:02 10° S
Okean 3 Rocket 3.5 19:49:35 10° S 19:54:03 69° E 19:58:29 10° NNE
Cosmos 2360 Rocket 4.0 19:49:42 10° WSW 19:54:45 33° NW 19:59:50 10° NNE
Meteor 1-11 Rocket 3.8 19:52:42 10° S 19:58:09 54° E 20:03:33 10° NNE
ERS-1 Rocket 3.7 19:56:18 23° ESE 19:58:42 37° ENE 20:03:17 10° N
Okean O Rocket 1.6 19:54:50 13° SSE 19:58:43 88° E 20:03:11 10° NNW
MetOp-B 4.3 19:56:35 21° SE 20:00:03 54° ENE 20:05:16 10° N
Cosmos 1515 Rocket 3.6 19:57:11 10° NNW 20:01:31 80° W 20:05:32 12° S
Ariane Rocket 4.2 20:00:30 21° E 20:02:21 27° ENE 20:06:33 10° N
PSLV R/B 3.4 20:01:55 28° SSE 20:03:40 72° ENE 20:07:12 10° N
Cosmos 2034 Rocket 4.1 19:59:04 10° SSE 20:05:04 54° E 20:11:04 10° NNE
Cosmos 1125 Rocket 3.5 19:59:50 10° NNW 20:05:04 89° WSW 20:08:40 20° SSE
Cosmos 2237 Rocket 2.3 20:00:03 10° S 20:05:27 50° ESE 20:10:52 10° NE
Cosmos 1818 4.1 20:00:26 10° SW 20:05:52 64° NW 20:11:21 10° NE
Cosmos 2322 Rocket 4.5 20:01:21 10° W 20:06:04 26° NW 20:10:49 10° NNE
Resurs 01 Rocket 2.7 20:05:14 10° S 20:09:28 44° W 20:13:44 10° NNW
Meteor 2-10 4.1 20:05:39 10° S 20:11:11 71° E 20:16:54 10° NNE
Cosmos 2228 Rocket 4.1 20:07:58 10° N 20:11:59 29° ENE 20:12:48 27° E
CSL-04 Rocket 4.2 20:07:38 10° S 20:12:55 57° WSW 20:18:10 10° NNW
Cosmos 2219 Rocket 3.6 20:08:05 10° WSW 20:13:24 40° NW 20:18:44 10° NNE
Okean-O 2.5 20:17:13 28° SSE 20:19:31 85° ENE 20:23:57 10° NNW
ATLAS 2AS CENTAUR R/B 4.2 20:14:21 10° WNW 20:20:44 34° NNW 20:26:54 10° NE
Cosmos 1500 Rocket 3.5 20:18:47 28° SSE 20:20:55 59° E 20:25:13 10° NNE
Meteor 1-21 4.4 20:17:10 10° N 20:22:48 55° ENE 20:25:14 33° SE
Cosmos 2333 Rocket 4.4 20:18:31 10° W 20:23:19 26° NW 20:28:08 10° NNE
SPOT 3 Rocket 4.2 20:23:20 31° E 20:24:47 37° ENE 20:29:29 10° N
Cosmos 1743 Rocket 3.6 20:25:53 44° SE 20:26:44 51° E 20:30:57 10° NNE
IRS-1A Rocket 4.3 20:26:12 30° SSE 20:29:10 72° ENE 20:34:52 10° NNW
Okean 3 4.4 20:25:49 10° N 20:29:24 30° ENE 20:29:24 30° ENE
Terra 1.9 20:31:45 43° ESE 20:32:58 57° ENE 20:37:36 10° N
Cosmos 2369 Rocket 2.9 20:28:20 10° NNW 20:33:46 41° NE 20:35:42 32° E
Cosmos 1980 3.6 20:28:55 10° SSW 20:34:36 83° ESE 20:40:20 10° NNE
Cosmos 2208 Rocket 4.0 20:30:10 10° S 20:35:20 62° ESE 20:40:37 10° NNE
Cosmos 1408 Rocket 3.6 20:32:57 14° SSW 20:36:45 77° WNW 20:41:11 10° N
BREEZE-M DEB (TANK) 4.1 20:33:50 10° W 20:37:08 65° S 20:39:47 34° ESE
NOSS 3-3 (C) 3.9 20:39:25 10° SSW 20:44:38 49° ESE 20:50:45 10° NE
Cosmos 1315 Rocket 3.7 20:42:37 10° NNW 20:46:25 45° W 20:48:00 29° SSW
Cosmos 1975 3.2 20:48:45 47° NE 20:48:45 47° NE 20:51:48 10° NNE
Cosmos 1943 Rocket 3.0 20:43:15 10° NW 20:48:27 44° WSW 20:51:28 23° SSW
USA 59 Rocket 2.5 20:48:05 10° W 20:50:46 16° WSW 20:53:44 11° SSW
USA 267 3.3 20:50:07 34° E 20:53:14 75° NNE 20:59:47 10° WNW
ACS3 Solar Sail 2.7 20:47:13 10° S 20:53:20 49° W 20:59:33 10° NNW
Okean 2 4.4 20:54:58 10° N 20:57:50 33° NE 20:57:50 33° NE
NOSS 3-3 (A) 3.7 20:54:32 10° SSW 20:59:54 63° SE 21:06:16 10° NE
CRYOSAT 2 4.5 20:56:09 10° N 21:01:02 74° W 21:03:01 36° SSW
Cosmos 1805 Rocket 3.8 20:59:56 37° SSW 21:01:31 66° WNW 21:05:52 10° N
SL-16 R/B 2.7 21:05:29 41° E 21:05:29 41° E 21:09:48 10° NE
SL-14 R/B 3.9 21:02:01 10° NNW 21:05:40 46° W 21:06:01 45° WSW
COSMOS 2428 4.3 21:00:40 10° WSW 21:05:56 36° NW 21:11:14 10° NNE
Spot 2 Rocket 3.4 21:07:26 62° SSE 21:08:18 88° WSW 21:13:22 10° NNW
SPOT 5 3.8 21:06:25 26° SSW 21:08:23 39° W 21:12:37 10° NNW
USA 306 3.6 21:08:18 10° W 21:10:38 40° W 21:10:38 40° W
Cosmos 1862 Rocket 3.5 21:07:32 10° N 21:11:44 76° NE 21:11:44 76° NE
Cosmos 1633 Rocket 4.1 21:14:04 34° NE 21:14:04 34° NE 21:16:50 10° NNE
Cosmos 1805 4.1 21:13:08 40° W 21:13:33 42° WNW 21:17:04 10° N
Cosmos 1707 Rocket 3.5 21:12:14 10° NNW 21:16:36 82° WNW 21:16:36 82° WNW
Cosmos 2263 4.3 21:11:38 10° NNW 21:17:20 59° NE 21:18:03 55° E
Cosmos 1092 Rocket 4.5 21:11:36 10° NNW 21:17:48 58° W 21:20:56 30° SSW
Cosmos 2278 Rocket 4.3 21:14:33 10° NW 21:18:30 20° W 21:22:24 10° SW
Cosmos 2266 Rocket 4.1 21:15:21 10° N 21:21:29 54° ENE 21:22:08 52° E
NOSS 3-4 (A) 3.7 21:15:40 10° NW 21:22:22 88° NE 21:24:21 53° SE
NOSS 3-4 (C) 3.7 21:15:47 10° NW 21:22:28 88° NE 21:24:27 53° SE
Cosmos 1656 Rocket 3.6 21:17:21 10° NNW 21:23:03 80° WSW 21:23:46 68° S
Cosmos 1666 Rocket 4.2 21:24:30 48° NNE 21:24:30 48° NNE 21:27:44 10° NNE
Sich 1 4.5 21:25:41 22° WSW 21:27:48 35° WNW 21:31:47 10° N
Cosmos 2344 4.5 21:25:01 10° NW 21:32:15 45° NNE 21:38:15 21° E
Cosmos 1634 Rocket 4.2 21:31:42 33° SSW 21:34:40 69° WNW 21:41:00 10° N
Okean O Rocket 4.3 21:33:29 10° WSW 21:35:36 13° W 21:37:44 10° WNW
ERS-1 Rocket 4.0 21:36:13 33° SW 21:37:25 38° W 21:42:07 10° NNW
Ariane Rocket 3.3 21:40:38 56° WSW 21:40:58 57° W 21:45:59 10° NNW
CZ-4C R/B 4.5 21:37:12 10° N 21:39:58 41° NNW 21:39:58 41° NNW
Cosmos 2237 Rocket 3.5 21:44:28 10° WSW 21:49:41 38° NW 21:54:56 10° NNE
Cosmos 2228 Rocket 4.2 21:45:58 10° NNW 21:50:13 39° W 21:50:13 39° W
Cosmos 2297 4.0 21:50:04 10° NW 21:55:33 54° WSW 21:55:35 54° WSW
Cosmos 2142 Rocket 4.4 21:55:45 71° SW 21:56:24 80° W 22:02:35 10° N
Cosmos 1655 Rocket 4.0 21:51:19 10° N 21:57:41 66° ENE 21:57:43 66° ENE
USA 215 4.5 21:53:21 10° ENE 21:55:57 25° ENE 21:55:57 25° ENE
ARIANE 5 R/B 4.1 22:02:05 30° NNE 22:02:05 30° NNE 22:04:38 10° N
MetOp-A 4.5 22:03:20 52° NNW 22:03:20 52° NNW 22:07:01 10° NNW
SPOT 3 Rocket 4.4 22:03:57 39° WSW 22:04:07 39° W 22:08:58 10° NNW
SL-08 ROCKET BODY 4.4 22:01:19 10° NNW 22:07:31 78° W 22:07:39 77° WSW
BREEZE-M DEB (TANK) 3.9 21:56:52 10° W 22:07:15 52° SW 22:07:15 52° SW
Okean 1-7 4.4 22:06:30 10° NNW 22:09:24 37° NW 22:09:24 37° NW
Terra 3.7 22:10:26 22° W 22:10:54 22° W 22:14:35 10° NW
ATLAS 2AS CENTAUR R/B 4.0 22:07:07 10° NW 22:13:27 35° NNE 22:17:28 20° ENE
Cosmos 2369 Rocket 2.9 22:12:26 10° NW 22:17:27 45° W 22:17:27 45° W
Cosmos 1607 4.3 22:34:25 49° W 22:36:04 65° NW 22:42:29 10° NE
USA 267 3.6 22:37:26 50° WSW 22:37:26 50° WSW 22:42:52 10° WNW
SL-16 R/B 3.3 22:47:17 36° W 22:48:36 41° NW 22:53:59 10° NNE
Cosmos 1943 4.0 23:12:26 47° N 23:12:26 47° N 23:16:33 10° NNE
Cosmos 1697 Rocket 3.8 23:20:33 10° NNW 23:25:18 39° NNE 23:25:18 39° NNE
USA 215 3.4 23:36:28 10° ENE 23:42:59 71° NNW 23:43:14 70° NNW
Cosmos 1553 Rocket 4.4 23:44:28 60° NNW 23:44:28 60° NNW 23:49:38 10° N
Cosmos 2344 3.8 23:39:24 10° NW 23:47:30 81° SW 23:48:12 76° S
ATLAS CENTAUR R/B 4.3 23:48:13 14° N 23:48:13 14° N 23:50:00 10° NNE
Cosmos 1709 Rocket 4.4 23:42:33 10° N 23:47:51 61° NNE 23:47:51 61° NNE
